Preview of NWS' New Version of Forecast
This preview is not operational and should not be used for support decisions.

Regional Weather Roundup (RWR)

Issued by National Weather Service (NWS)

                            
000
ASUS42 KTBW 172017
RWRFL 
FLORIDA REGIONAL WEATHER ROUNDUP
NATIONAL WEATHER SERVICE TAMPA BAY RUSKIN FL
300 PM EST SUN FEB 17 2019

NOTE: "FAIR" INDICATES FEW OR NO CLOUDS BELOW 12,000 FEET WITH NO
SIGNIFICANT WEATHER AND/OR OBSTRUCTIONS TO VISIBILITY.

FLZ001>010-012>015-112-114-115-172100-
PANHANDLE FLORIDA
  
CITY           SKY/WX    TMP DP  RH WIND       PRES   REMARKS
PENSACOLA      CLOUDY    74  67  78 SE9       29.85F                  
PENSACOLA NAS  CLOUDY    73  70  90 SE5       29.84F                  
MILTON NAS     CLOUDY    75  69  81 S15       29.84                   
CRESTVIEW      PTSUNNY   75  68  78 S9        29.86F                  
DUKE FIELD     FAIR      74  67  79 S14       29.85F                  
VALPARAISO     PTSUNNY   73  68  84 S13G20    29.85F                  
MARY ESTHER    PTSUNNY   71  66  84 SE10      29.84                   
PANAMA CITY    PTSUNNY   76  69  79 SE10      29.87F                  
TYNDALL AFB    CLOUDY    74  69  82 S18G26    29.87F                  
APALACHICOLA   PTSUNNY   72  66  81 S14       29.90F                  

STATION/POSITION SKY/WX   TEMP    WIND        PRES    WAVE   SWELL
                          AIR SEA DIR/SP/G            HT/PER HT/PER
                          (F)     (DEG/KT/KT) (MB)    (FT/S) (FT/S)
30.1N   87.6W              68     130/  6/  8 1010.7F   2/ 6   2/ 6
29.2N   88.2W                     190/ 12/ 14 1010.4F   3/ 5
PANAMA CITY BEAC           66 63  130/ 12/ 13 1012.1F
TOWER C                    68     150/ 12/ 12 1013.0F

$$
FLZ011-016>038-118-127-128-134-139-239-172100-
NORTH FLORIDA
  
CITY           SKY/WX    TMP DP  RH WIND       PRES   REMARKS
MARIANNA       CLOUDY    82  66  58 SW14      29.85F                  
TALLAHASSEE    PTSUNNY   76  68  76 S10       29.90F                  
PERRY          CLOUDY    78  65  64 SW15G21   29.94S                  
LIVE OAK       PTSUNNY   79  66  65 CALM      29.93S                  
CROSS CITY     CLOUDY    79  64  60 S16       29.95S                  
LAKE CITY      PTSUNNY   79  64  61 S7        29.93F                  
GAINESVILLE    PTSUNNY   85  63  47 W14       29.96F                  
WILLISTON        N/A    N/A N/A N/A MISG        N/A                   
PALATKA        PTSUNNY   84  63  48 SW7       29.94S                  
MAYPORT NAS    CLOUDY    69  63  81 SE9       29.95F                  
JACKSONVILLE   PTSUNNY   77  66  68 NE3       29.93F                  
JAX NAS        PTSUNNY   78  66  66 SE8       29.95F                  
JAX CECIL      MOSUNNY   81  68  65 VRB5      29.94F                  
FERNANDINA BEA LGT RAIN  64  62  95 E8        29.96F                  
ST AUGUSTINE   PTSUNNY   72  65  78 SE10      29.96F                  
PALM COAST     CLOUDY    81  64  57 SE8       29.94F                  

STATION/POSITION SKY/WX   TEMP    WIND        PRES    WAVE   SWELL
                          AIR SEA DIR/SP/G            HT/PER HT/PER
                          (F)     (DEG/KT/KT) (MB)    (FT/S) (FT/S)
SHELL POINT      NOT AVBL
KEATON BEACH               68     170/ 14/ 16 1014.0F
CEDAR KEY                  69     200/ 12/ 14 1014.5F
FERNANDINA                 67 62   90/  6/  9 1015.2F
30.7N   81.3W                 61                N/A     2/ 6
MAYPORT                    68 62  130/  6/  8 1014.4F
31.4N   80.9W              60 59  110/ 10/ 10 1014.9F   3/ 5   3/ 5
ST AUGUSTINE               64 62  110/  4/  4 1014.6F

$$
FLZ040-043>046-052-053-057-058-063-144-172100-
INTERIOR CENTRAL FLORIDA
  
CITY           SKY/WX    TMP DP  RH WIND       PRES   REMARKS
OCALA          CLOUDY    84  64  50 SW10      29.94F                  
LEESBURG       FAIR      84  63  49 S10       29.95S                  
SANFORD        FAIR      83  64  52 S10       29.94F                  
ORLANDO EXEC   FAIR      85  64  49 S12       29.95S                  
ORLANDO INTL   FAIR      84  64  50 S15G22    29.95F                  
KISSIMMEE      FAIR      85  65  51 S8        29.96F                  
WINTER HAVEN   PTSUNNY   86  64  47 SW15G24   29.96F                  
LAKELAND       MOSUNNY   82  64  54 S13G20    29.95F                  
BARTOW         PTSUNNY   84  64  51 S9G18     29.94F                  
SEBRING        MOCLDY    86  65  48 S8        29.95F                  
OKEECHOBEE     PTSUNNY   82  66  57 S8        29.96F                  

$$
FLZ041-047-054-059-064-141-147-172100-
EAST CENTRAL FLORIDA
  
CITY           SKY/WX    TMP DP  RH WIND       PRES   REMARKS
ORMOND BEACH   MOSUNNY   82  63  51 SW7       29.95S                  
DAYTONA BEACH  PTSUNNY   84  66  54 S12       29.95S                  
DELAND         CLOUDY    82  63  51 SW12      29.94F                  
NEW SMYRNA BEA PTSUNNY   82  63  51 SW9G16    29.96S                  
JFK SPACE CTR  FAIR      81  67  61 S9        29.94F                  
TITUSVILLE     PTSUNNY   81  66  61 SE12      29.96F                  
CAPE CANAVERAL FAIR      77  66  68 SE14      29.94F                  
PATRICK AFB    FAIR      74  69  85 SE12      29.96F                  
MELBOURNE      PTSUNNY   78  66  66 SE13      29.95F                  
VERO BEACH     CLOUDY    82  66  58 SE16      29.96F                  
FT PIERCE      FAIR      84  63  49 SW7       29.96F                  

STATION/POSITION SKY/WX   TEMP    WIND        PRES    WAVE   SWELL
                          AIR SEA DIR/SP/G            HT/PER HT/PER
                          (F)     (DEG/KT/KT) (MB)    (FT/S) (FT/S)
28.5N   80.2W              70     160/  6/  8 1015.2
28.9N   78.5W              75 76  180/  8/ 12 1016.2F   3/ 8   2/ 8
TRIDENT PIER               72 66  120/  7/ 11 1015.7F
28.4N   80.5W                 66                N/A     1/ 8

$$
FLZ050-056-061-142-242-148-248-149-249-151-251-155-255-
160-260-172100-
WEST CENTRAL FLORIDA
  
CITY           SKY/WX    TMP DP  RH WIND       PRES   REMARKS
CRYSTAL RIVER  CLOUDY    81  64  57 SW8       29.95F                  
INVERNESS      PTSUNNY   86  68  54 SW9       29.95S                  
BROOKSVILLE    PTSUNNY   84  64  50 S16G23    29.96S                  
CLEARWATER AIR FAIR      81  68  65 S15G25    29.95R                  
ST PETE CLEARW FAIR      82  67  60 S20G28    29.95S                  
TAMPA INTL     FAIR      81  68  64 S16       29.95S                  
TAMPA EXEC     CLOUDY    82  66  57 SW9       29.95S                  
PLANT CITY     PTSUNNY   86  64  48 S6        29.96F                  
MACDILL AFB    FAIR      78  68  71 SW20      29.94S                  
PETER O KNIGHT CLOUDY    82  70  65 SW13      29.95S                  
ST PETERSBURG  FAIR      79  68  69 S18       29.93S                  
SARASOTA       FAIR      81  70  69 S20       29.93F                  
VENICE         FAIR      79  72  78 S20G25    29.96S                  

STATION/POSITION SKY/WX   TEMP    WIND        PRES    WAVE   SWELL
                          AIR SEA DIR/SP/G            HT/PER HT/PER
                          (F)     (DEG/KT/KT) (MB)    (FT/S) (FT/S)
27.3N   84.2W                 72                N/A     3/ 5
CLEARWATER BEACH           76 67  160/ 17/ 22 1014.2S
MIDDLE TAMPA BAY           75     210/ 14/ 18 1014.1F
VENICE                     72 67  160/ 14/ 16   N/A

$$
FLZ066-069-070-075>078-162-262-165-265-172100-
SOUTHWEST FLORIDA AND KEYS
  
CITY           SKY/WX    TMP DP  RH WIND       PRES   REMARKS
PUNTA GORDA    FAIR      83  64  52 S18       29.97F                  
FT MYERS       FAIR      83  63  50 S10G24    29.95F                  
SOUTHWEST INTL FAIR      83  64  52 S15       29.95F                  
NAPLES         FAIR      84  68  58 S13G22    29.96F                  
MARCO ISLAND   FAIR      81  72  74 S16       29.98                   
IMMOKALEE      FAIR      88  64  45 SW10G18   29.94S                  
MARATHON       FAIR      86  72  62 SE9       29.97F                  
KEY WEST NAS   FAIR      84  70  62 SE13      29.97F                  
KEY WEST INTL  FAIR      81  71  71 SE12      29.97F                  

STATION/POSITION SKY/WX   TEMP    WIND        PRES    WAVE   SWELL
                          AIR SEA DIR/SP/G            HT/PER HT/PER
                          (F)     (DEG/KT/KT) (MB)    (FT/S) (FT/S)
NAPLES                     76 72  160/ 17/ 19 1014.5F
26.0N   85.6W              79 80  170/ 19/ 23 1011.3
DRY TORTUGAS               77     160/ 12/ 13 1014.3F
SAND KEY                   77                 1014.7F
SOMBRERO KEY               78                 1014.4F
LONG KEY                   78 77  150/ 11/ 12 1014.8F
MOLASSES REEF              78 78  170/ 14     1015.7F

$$
FLZ067-068-071>074-168-172>174-172100-
SOUTHEAST FLORIDA 
  
CITY           SKY/WX    TMP DP  RH WIND       PRES   REMARKS
W PALM BEACH   PTSUNNY   83  66  56 S17G26    29.97F                  
BOCA RATON     MOSUNNY   82  68  61 SE14G26   29.98F                  
FT LAUDER-EXEC FAIR      83  68  60 SE12G21   29.98F                  
FT LAUDERDALE  PTSUNNY   81  69  67 S14       29.97F                  
POMPANO BEACH  FAIR      82  67  60 S16       29.98F                  
PEMBROKE PINES PTSUNNY   82  66  58 SE14G23   29.99F                  
OPA LOCKA      FAIR      83  67  58 S17       29.98F                  
MIAMI          FAIR      82  71  69 SE14G24   29.98F                  
WEST KENDALL   PTSUNNY   84  70  62 S9        29.98F                  
HOMESTEAD      CLOUDY    81  72  74 SE12      29.97F                  

STATION/POSITION SKY/WX   TEMP    WIND        PRES    WAVE   SWELL
                          AIR SEA DIR/SP/G            HT/PER HT/PER
                          (F)     (DEG/KT/KT) (MB)    (FT/S) (FT/S)
VIRGINIA KEY               78 76  150/ 11/ 13 1015.1F
LAKE WORTH                 77 77  200/ 18/ 21 1016.5F
FOWEY ROCKS                78 76  160/ 14/ 16 1016.1F
SETTLEMENT POINT           77     190/ 12/ 14 1016.3S

$$